Skip Page Navigation
NASA JPL Caltech
NASA Logo - Jet Propulsion Laboratory + View the NASA Portal
+ Center for Near-Earth Object Studies
JPL Home Earth Solar System Stars & Galaxies Technology
JPL Solar System Dynamics
BODIES ORBITS EPHEMERIDES TOOLS PHYSICAL DATA DISCOVERY FAQ SITE MAP
IMPORTANT: The SSD Announcement email list is now available. Major changes are coming in the near future, including possible hostname and/or URL changes. To be notified of such changes, subscribe to this email list.

Please visit this page for more details.


JPL Small-Body Database Browser
Search: [ help ]  
295708 (2008 UC11)
Classification: Main-belt Asteroid          SPK-ID: 2295708
Ephemeris | Orbit Diagram | Orbital Elements | Mission Design | Physical Parameters | Discovery Circumstances | Close-Approach Data ]

[ show orbit diagram ]
Orbital Elements at Epoch 2458600.5 (2019-Apr-27.0) TDB
Reference: JPL 8 (heliocentric ecliptic J2000)
 Element Value Uncertainty (1-sigma)   Units 
e .04824638749103329 5.4947e-08  
a 2.256116216109645 1.7603e-08 au
q 2.147266758922415 1.2264e-07 au
i 6.61069767781243 6.7342e-06 deg
node 3.306613828020029 4.2378e-05 deg
peri 156.7430771840678 7.5469e-05 deg
M 258.2557254922082 6.2515e-05 deg
tp 2458950.322795587324
(2020-Apr-10.82279559)
0.00021531 TDB
period 1237.771923979782
3.39
1.4487e-05
3.966e-08
d
yr
n .2908451815925018 3.404e-09 deg/d
Q 2.364965673296874 1.8453e-08 au
  Orbit Determination Parameters
   # obs. used (total)      188  
   data-arc span      6207 days (16.99 yr)  
   first obs. used      2001-09-19  
   last obs. used      2018-09-17  
   planetary ephem.      DE431  
   SB-pert. ephem.      SB431-N16  
   condition code      0  
   norm. resid. RMS      .54237  
   source      ORB  
   producer      Otto Matic  
   solution date      2018-Oct-03 12:39:41  

Additional Information
 Earth MOID = 1.15628 au 
 Jupiter MOID = 2.60434 au 
 T_jup = 3.613 
[ show covariance matrix ]

Ephemeris | Orbit Diagram | Orbital Elements | Mission Design | Physical Parameters | Discovery Circumstances | Close-Approach Data ]

Physical Parameter Table
Parameter Symbol Value Units Sigma Reference Notes
absolute magnitude H 17.3   n/a MPO455186  

295708 (2008 UC11)          Discovered 2008-Oct-17 by Spacewatch at Kitt Peak
Reference: 20110912/Numbers.arcLast Updated: 2011-09-14

[ show close-approach data ]
Ephemeris | Orbit Diagram | Orbital Elements | Mission Design | Physical Parameters | Discovery Circumstances | Close-Approach Data ]
ABOUT SSD CREDITS/AWARDS PRIVACY/COPYRIGHT GLOSSARY LINKS
FirstGov
(server date/time)  
NASA Home Page
Site Manager:   Ryan S. Park
Webmaster  Alan B. Chamberlin